Time,Green Fraction,Red Fraction
2024-05-01T05:29:59,0.263608580549,0.465286110453
2024-05-01T05:59:59,0.26800706726,0.441046596398
2024-05-01T06:29:59,0.244596468889,0.447542301227
2024-05-01T06:59:59,0.23404635615,0.41166631606
2024-05-01T07:29:59,0.266736934533,0.388780998771
2024-05-01T07:59:59,0.287423890621,0.387329896113
2024-05-01T08:29:59,0.293474103231,0.385649364369
2024-05-01T08:59:59,0.295089149076,0.384585017868
2024-05-01T09:29:59,0.307492392504,0.37921305415
2024-05-01T09:59:59,0.309179213902,0.381329971284
2024-05-01T10:29:59,0.311415628365,0.381405541643
2024-05-01T10:59:59,0.312641007727,0.383938032356
2024-05-01T11:29:59,0.315074794655,0.383629503487
2024-05-01T11:59:59,0.314919230022,0.385613627138
2024-05-01T12:29:59,0.316846902642,0.38441484832
2024-05-01T12:59:59,0.318455387279,0.38414312318
2024-05-01T13:29:59,0.318539424574,0.385608442244
2024-05-01T13:59:59,0.318861245259,0.384499295429
2024-05-01T14:29:59,0.320615103192,0.384254711089
2024-05-01T14:59:58,0.321356685716,0.38389131187
2024-05-01T15:29:59,0.32028603393,0.387366736593
2024-05-01T15:59:58,0.320654079834,0.388582721986
2024-05-01T16:29:59,0.320574604512,0.390082855964
2024-05-01T16:59:59,0.322760120232,0.386367990453
2024-05-01T17:29:59,0.323129417591,0.388700171752
2024-05-01T17:59:59,0.324094027112,0.390688030973
2024-05-01T18:29:59,0.323352551903,0.395296773104
2024-05-02T05:29:59,0.263155923461,0.455116305996
2024-05-02T05:59:59,0.276743014354,0.425425662482
2024-05-02T06:29:59,0.258016227275,0.432329366146
2024-05-02T06:59:59,0.243485588947,0.401809510588
2024-05-02T07:29:59,0.260899669042,0.39618561578
2024-05-02T07:59:59,0.28236345059,0.394175270454
2024-05-02T08:29:59,0.296052943861,0.387497855515
2024-05-02T08:59:59,0.300307315447,0.385439142368
2024-05-02T09:29:59,0.30289744684,0.384904885199
2024-05-02T09:59:59,0.305055943293,0.383379835745
2024-05-02T10:29:59,0.309500397345,0.383007152883
2024-05-02T10:59:59,0.311014198173,0.384582952168
2024-05-02T11:29:59,0.313539774786,0.38723753165
2024-05-02T11:59:59,0.314828068693,0.386755719635
2024-05-02T12:29:59,0.318820359334,0.384186336282
2024-05-02T12:59:59,0.317960127009,0.385399275367
2024-05-02T13:29:59,0.318735586011,0.385695310502
2024-05-02T13:59:59,0.319056893335,0.384620995609
2024-05-02T14:29:58,0.319408784959,0.38488391865
2024-05-02T14:59:59,0.321039207316,0.385260064796
2024-05-02T15:29:59,0.320938982005,0.387242366656
2024-05-02T15:59:59,0.320661023993,0.39053934667
2024-05-02T16:29:59,0.321240191042,0.390249240153
2024-05-02T16:59:59,0.322662173007,0.387304193535
2024-05-02T17:29:59,0.323545103901,0.390003585063
2024-05-02T17:59:59,0.323361271475,0.3928840664
2024-05-02T18:29:59,0.324076679457,0.399106989031
2024-05-03T05:29:59,0.266902646679,0.415216974191
2024-05-03T05:59:59,0.272084790071,0.428348130616
2024-05-03T06:29:59,0.300607504141,0.384282770043
2024-05-03T06:59:59,0.304200804163,0.392622665023
2024-05-03T07:29:59,0.304941140787,0.399277193233
2024-05-03T07:59:59,0.31171585915,0.389731889113
2024-05-03T08:29:59,0.309843430325,0.393005697439
2024-05-03T08:59:59,0.291976589608,0.400644652768
2024-05-03T09:29:59,0.298144151163,0.392522428416
2024-05-03T09:59:59,0.309489814835,0.385386225069
2024-05-03T10:29:59,0.30621990554,0.389889410907
2024-05-03T10:59:59,0.305967666725,0.390384064094
2024-05-03T11:29:59,0.315780352655,0.378075428102
2024-05-03T11:59:59,0.315578031819,0.386902187554
2024-05-03T12:29:59,0.317134696073,0.387014567937
2024-05-03T12:59:59,0.318819142951,0.384990313772
2024-05-03T13:29:59,0.318201823734,0.386117202422
2024-05-03T13:59:59,0.318397611148,0.386181924353
2024-05-03T14:29:58,0.316702422488,0.380104934336
2024-05-03T14:59:59,0.320497950084,0.387703424641
2024-05-03T15:29:58,0.321490561098,0.390384565825
2024-05-03T15:59:59,0.319775455966,0.387960913717
2024-05-03T16:29:59,0.317504504031,0.390205715551
2024-05-03T16:59:59,0.314784232344,0.392612792169
2024-05-03T17:29:59,0.32279272203,0.391778278384
2024-05-03T17:59:59,0.321846470736,0.396021770892
2024-05-03T18:29:59,0.312623165373,0.396655276559
2024-05-04T05:29:59,0.230493265278,0.455970676546
2024-05-04T05:59:59,0.26354856531,0.432635029421
2024-05-04T06:29:59,0.257137679521,0.430522265822
2024-05-04T06:59:58,0.245470430543,0.40515610564
2024-05-04T07:29:59,0.288537482944,0.378167063119
2024-05-04T07:59:59,0.266835216588,0.41311919734
2024-05-04T08:29:59,0.286015266839,0.41021683458
2024-05-04T08:59:59,0.303408198252,0.380954785739
2024-05-04T09:29:59,0.297013485284,0.397602712621
2024-05-04T09:59:59,0.302224406742,0.394566666684
2024-05-04T10:29:59,0.306185017951,0.387161636603
2024-05-04T10:59:59,0.316756045321,0.387104612287
2024-05-04T11:29:59,0.304315456511,0.364667928332
2024-05-04T11:59:59,0.318541004781,0.383223655196
2024-05-04T12:29:59,0.316415088136,0.381019664711
2024-05-04T12:59:59,0.318162261102,0.384251378431
2024-05-04T13:29:59,0.318396885908,0.383575455966
2024-05-04T13:59:59,0.319700293897,0.383018516963
2024-05-04T14:29:59,0.320766736302,0.384147603809
2024-05-04T14:59:59,0.320883925351,0.384064288036
2024-05-04T15:29:59,0.321103309392,0.388830876297
2024-05-04T15:59:59,0.320274575551,0.391273746851
2024-05-04T16:29:59,0.320210092866,0.395226352773
2024-05-04T16:59:59,0.308936110962,0.368945670434
2024-05-04T17:29:59,0.305714713531,0.369653751965
2024-05-04T17:59:59,0.32297839136,0.392825860101
2024-05-04T18:29:59,0.323613538536,0.39443913343
2024-05-05T05:29:59,0.252656666459,0.456448602807
2024-05-05T05:59:59,0.25450279668,0.437665396609
2024-05-05T06:29:59,0.247894168714,0.437823183014
2024-05-05T06:59:59,0.219443883308,0.419583370473
2024-05-05T07:29:59,0.259083698489,0.396098146864
2024-05-05T07:59:59,0.282339843785,0.394542651724
2024-05-05T08:29:59,0.301759310219,0.374007307143
2024-05-05T08:59:59,0.301330260339,0.379072195634
2024-05-05T09:29:59,0.30467660979,0.379140412888
2024-05-05T09:59:59,0.311802393631,0.375407160264
2024-05-05T10:29:59,0.313222793345,0.377041972588
2024-05-05T10:59:59,0.31371064683,0.38142191049
2024-05-05T11:29:59,0.316113125215,0.382916111462
2024-05-05T11:59:59,0.316262665452,0.384231255327
2024-05-05T12:29:59,0.316670114401,0.384995084031
2024-05-05T12:59:59,0.317205402916,0.382260953204
2024-05-05T13:29:59,0.316881370762,0.385529028577
2024-05-05T13:59:59,0.313669255581,0.387934885129
2024-05-05T14:29:59,0.311542546828,0.390632250662
2024-05-05T14:59:59,0.314012668683,0.390403152233
2024-05-05T15:29:59,0.313302862217,0.390744674217
2024-05-05T15:59:59,0.31425978071,0.386274849601
2024-05-05T16:29:59,0.315273162828,0.389225907404
2024-05-05T16:59:59,0.315294627969,0.391456238064
2024-05-05T17:29:59,0.318028611894,0.39268503095
2024-05-05T17:59:59,0.323191838728,0.395643703427
2024-05-05T18:29:59,0.318661913961,0.397266659038
2024-05-06T05:29:59,0.268654734358,0.443293286767
2024-05-06T05:59:59,0.268139044881,0.42344956306
2024-05-06T06:29:59,0.25615267954,0.432126606122
2024-05-06T06:59:59,0.264314954166,0.386640976877
2024-05-06T07:29:59,0.281466205733,0.37740087447
2024-05-06T07:59:59,0.288872424611,0.383479191323
2024-05-06T08:29:59,0.273048442846,0.410234681292
2024-05-06T08:59:59,0.29448011569,0.392632684871
2024-05-06T09:29:58,0.305834700674,0.384071316555
2024-05-06T09:59:59,0.303118583945,0.381829164381
2024-05-06T10:29:59,0.31162209052,0.382245710433
2024-05-06T10:59:59,0.313940177575,0.380958627357
2024-05-06T11:29:59,0.311233620284,0.378333395218
2024-05-06T11:59:59,0.315095067611,0.382112701371
2024-05-06T12:29:59,0.318561013146,0.384749639535
2024-05-06T12:59:59,0.30813317866,0.381649151973
2024-05-06T13:29:59,0.314384652416,0.383825190114
2024-05-06T13:59:59,0.321239049082,0.385102969354
2024-05-06T14:29:59,0.322014926302,0.386063011157
2024-05-06T14:59:59,0.312237664278,0.37665902941
2024-05-06T15:29:59,0.317559355203,0.38659863295
2024-05-06T15:59:58,0.311805897578,0.374782385401
2024-05-06T16:29:59,0.320595465862,0.392200264273
2024-05-06T16:59:59,0.322838007307,0.386175394815
2024-05-06T17:29:59,0.322878921041,0.387766693418
2024-05-06T17:59:59,0.322196393427,0.390036702234
2024-05-06T18:29:59,0.323558644075,0.392931417913
2024-05-07T05:29:59,0.259922248939,0.45437201691
2024-05-07T05:59:59,0.264983116736,0.426325509017
2024-05-07T06:29:59,0.27002185478,0.413369579461
2024-05-07T06:59:59,0.265973737641,0.384167741995
2024-05-07T07:29:59,0.292197616544,0.369417544422
2024-05-07T07:59:59,0.303410789235,0.369920735231
2024-05-07T08:29:59,0.29234278172,0.387382615561
2024-05-07T08:59:59,0.296428686129,0.372962573841
2024-05-07T09:29:59,0.311485953788,0.376765013992
2024-05-07T09:59:59,0.305956717538,0.365803049695
2024-05-07T10:29:59,0.312873580902,0.382096289278
2024-05-07T10:59:59,0.303147193436,0.365712298828
2024-05-07T11:29:59,0.316185979521,0.383606407856
2024-05-07T11:59:59,0.31053039526,0.366881130684
2024-05-07T12:29:58,0.318425472415,0.385707853192
2024-05-07T12:59:59,0.318735965089,0.386146458092
2024-05-07T13:29:59,0.313668336047,0.373623525815
2024-05-07T13:59:59,0.319892167764,0.383770214375
2024-05-07T14:29:59,0.320789381169,0.381176236012
2024-05-07T14:59:59,0.321064191969,0.384101640764
2024-05-07T15:29:59,0.321675124502,0.386175570799
2024-05-07T15:59:59,0.321481770409,0.389167336783
2024-05-07T16:29:59,0.321997732766,0.389081333282
2024-05-07T16:59:59,0.323500091891,0.386948270553
2024-05-07T17:29:59,0.323786002878,0.386787385599
2024-05-07T17:59:59,0.322648230254,0.38986057414
2024-05-07T18:29:59,0.32330102495,0.392942494432
2024-05-08T05:29:59,0.266311210226,0.441201646498
2024-05-08T05:59:59,0.260458313569,0.437724762892
2024-05-08T06:29:59,0.268378134438,0.4152382745
2024-05-08T06:59:59,0.28707434036,0.368132286809
2024-05-08T07:29:59,0.294241452776,0.363708968655
2024-05-08T07:59:59,0.307326196541,0.364872573662
2024-05-08T08:29:59,0.305705182026,0.367980472207
2024-05-08T08:59:59,0.311627118434,0.367358237805
2024-05-08T09:29:59,0.314954857985,0.36810460014
2024-05-08T09:59:59,0.314034950119,0.37378137751
2024-05-08T10:29:59,0.312843795787,0.3804272377
2024-05-08T10:59:59,0.315475078021,0.379587738543
2024-05-08T11:29:59,0.317030320139,0.379928179635
2024-05-08T11:59:59,0.317045034563,0.381430472994
2024-05-08T12:29:59,0.318406865607,0.381999166772
2024-05-08T12:59:59,0.31884929754,0.382264173942
2024-05-08T13:29:59,0.319308119437,0.381782180582
2024-05-08T13:59:59,0.321139342276,0.381439225382
2024-05-08T14:29:59,0.320562430073,0.382346384423
2024-05-08T14:59:59,0.320730801381,0.383814991241
2024-05-08T15:29:59,0.321171247101,0.385679588807
2024-05-08T15:59:59,0.321244603425,0.38211838154
2024-05-08T16:29:59,0.322548313851,0.38412191979
2024-05-08T16:59:59,0.32375728767,0.383420002071
2024-05-08T17:29:59,0.322570940124,0.387255298249
2024-05-08T17:59:59,0.322871734788,0.389214425664
2024-05-08T18:29:59,0.323178022693,0.392620001223
2024-05-09T05:29:59,0.310778165558,0.364449504121
2024-05-09T05:59:58,0.312125238872,0.367840473143
2024-05-09T06:29:59,0.313586688368,0.384417124811
2024-05-09T06:59:59,0.311357640756,0.377066834616
2024-05-09T07:29:59,0.309501448752,0.390676090571
2024-05-09T07:59:59,0.307232084423,0.393546281647
2024-05-09T08:29:59,0.309544612232,0.391473967357
2024-05-09T08:59:59,0.308485195793,0.395341718443
2024-05-09T09:29:59,0.308259365682,0.395687945255
2024-05-09T09:59:59,0.312073888418,0.389470547881
2024-05-09T10:29:59,0.307381664152,0.391328616882
2024-05-09T10:59:59,0.310174934153,0.392339488036
2024-05-09T11:29:59,0.316684179802,0.383300181134
2024-05-09T11:59:59,0.318797579396,0.38132277136
2024-05-09T12:29:59,0.319536187004,0.38081091729
2024-05-09T12:59:59,0.320007327168,0.382311992234
2024-05-09T13:29:59,0.310696929483,0.364922491083
2024-05-09T13:59:59,0.320960520744,0.38847003624
2024-05-09T14:29:59,0.321299447896,0.384082495893
2024-05-09T14:59:59,0.316909828749,0.380593379304
2024-05-09T15:29:59,0.319744106145,0.382099257039
2024-05-09T15:59:59,0.317799338982,0.378759442625
2024-05-09T16:29:59,0.321945244113,0.390595756922
2024-05-09T16:59:59,0.316465331016,0.389757428053
2024-05-09T17:29:59,0.31802122551,0.386520748254
2024-05-09T17:59:59,0.314024568728,0.383500293778
2024-05-09T18:29:59,0.315576895465,0.381675328517
2024-05-10T05:29:58,0.292741248008,0.379729123455
2024-05-10T05:59:59,0.292112420677,0.393559974572
2024-05-10T06:29:59,0.296426542558,0.390281740797
2024-05-10T06:59:59,0.297516558545,0.386260415847
2024-05-10T07:29:59,0.304116200391,0.401090379908
2024-05-10T07:59:59,0.29962587435,0.404385123155
2024-05-10T08:29:59,0.304487706871,0.39916492733
2024-05-10T08:59:59,0.30482280929,0.415980838663
2024-05-10T09:29:59,0.296707909166,0.38735685043
2024-05-10T09:59:59,0.314957937626,0.388458978391
2024-05-10T10:29:59,0.315877989294,0.387379874587
2024-05-10T10:59:59,0.315977456682,0.378249240967
2024-05-10T11:29:59,0.318736809612,0.382513571972
2024-05-10T11:59:59,0.318568907297,0.38205869716
2024-05-10T12:29:59,0.319335464244,0.38248854931
2024-05-10T12:59:59,0.320467462572,0.382706663645
2024-05-10T13:29:59,0.320760099594,0.383145466479
2024-05-10T13:59:59,0.319285923463,0.385005099705
2024-05-10T14:29:59,0.320313425104,0.382436420429
2024-05-10T14:59:58,0.321123978327,0.38486383765
2024-05-10T15:29:59,0.321330008748,0.381876961569
2024-05-10T15:59:59,0.323104838424,0.384568551142
2024-05-10T16:29:59,0.323424416086,0.384129193841
2024-05-10T16:59:59,0.32233071246,0.38643205992
2024-05-10T17:29:59,0.321809239642,0.387330730093
2024-05-10T17:59:59,0.311511576701,0.373917271693
2024-05-10T18:29:59,0.323077666275,0.389674740946
2024-05-11T05:29:59,0.260613097759,0.4422245021
2024-05-11T05:59:59,0.256813374961,0.440073194797
2024-05-11T06:29:59,0.264712613478,0.420670535454
2024-05-11T06:59:59,0.251491109728,0.403591518075
2024-05-11T07:29:59,0.294116349017,0.384730132121
2024-05-11T07:59:59,0.299128930466,0.386943730463
2024-05-11T08:29:59,0.303417943691,0.38318347292
2024-05-11T08:59:59,0.307229598572,0.382991043557
2024-05-11T09:29:59,0.313405943726,0.377562753279
2024-05-11T09:59:59,0.315293337152,0.378831405295
2024-05-11T10:29:59,0.315393518228,0.379413335964
2024-05-11T10:59:59,0.3177474233,0.380556072222
2024-05-11T11:29:59,0.318617653679,0.380655565288
2024-05-11T11:59:59,0.318748530062,0.380227293945
2024-05-11T12:29:58,0.319980543881,0.381140988818
2024-05-11T12:59:59,0.320538428638,0.380808962405
2024-05-11T13:29:59,0.319560355238,0.381382454875
2024-05-11T13:59:59,0.320112988942,0.380935601536
2024-05-11T14:29:59,0.320496732484,0.380865231659
2024-05-11T14:59:59,0.322171627294,0.381494349286
2024-05-11T15:29:59,0.321827845797,0.384536544999
2024-05-11T15:59:59,0.32213453725,0.38495568961
2024-05-11T16:29:59,0.321813277633,0.386122026123
2024-05-11T16:59:59,0.322836929674,0.384002072418
2024-05-11T17:29:58,0.322679512616,0.385525078331
2024-05-11T17:59:59,0.322576803199,0.3868908665
2024-05-11T18:29:59,0.322792556583,0.388149646015
2024-05-12T05:29:59,0.26281446936,0.43588347996
2024-05-12T05:59:59,0.273047381507,0.392019331709
2024-05-12T06:29:59,0.294702911172,0.386791496715
2024-05-12T06:59:59,0.292614076363,0.389640846879
2024-05-12T07:29:59,0.288373646573,0.400539242009
2024-05-12T07:59:59,0.284294721962,0.41653726232
2024-05-12T08:29:59,0.295132063363,0.390305331257
2024-05-12T08:59:59,0.306744294136,0.387789779796
2024-05-12T09:29:59,0.310000797004,0.393372179305
2024-05-12T09:59:59,0.312505704164,0.390776110515
2024-05-12T10:29:59,0.309063906666,0.394407247123
2024-05-12T10:59:59,0.314592714722,0.390089927279
2024-05-12T11:29:59,0.315466364619,0.387874646745
2024-05-12T11:59:59,0.316461017726,0.385850606027
2024-05-12T12:29:59,0.318384898126,0.382840778053
2024-05-12T12:59:59,0.317302068241,0.387648179068
2024-05-12T13:29:58,0.319482881586,0.383605407027
2024-05-12T13:59:59,0.320523558064,0.385090172361
2024-05-12T14:29:59,0.318199704284,0.386305498314
2024-05-12T14:59:59,0.315092067238,0.388580618071
2024-05-12T15:29:59,0.317198632814,0.385347389646
2024-05-12T15:59:59,0.316135038466,0.386797731797
2024-05-12T16:29:59,0.315432795422,0.386245687673
2024-05-12T16:59:59,0.31101368334,0.385828726696
2024-05-12T17:29:59,0.314424733655,0.377632216013
2024-05-12T17:59:59,0.318554774585,0.380906334748
2024-05-12T18:29:59,0.310004995536,0.376594407206
2024-05-13T05:29:59,0.313304486266,0.369086184316
2024-05-13T05:59:58,0.314806766905,0.375709507785
2024-05-13T06:29:59,0.308368380258,0.372184346677
2024-05-13T06:59:59,0.309500397967,0.371074202357
2024-05-13T07:29:59,0.308845231593,0.376569222268
2024-05-13T07:59:59,0.310856271227,0.383552857496
2024-05-13T08:29:59,0.310964952414,0.375454606714
2024-05-13T08:59:59,0.306948983305,0.391557493124
2024-05-13T09:29:59,0.314510494262,0.381111691465
2024-05-13T09:59:59,0.316692860173,0.384925450963
2024-05-13T10:29:59,0.3134330474,0.392746499881
2024-05-13T10:59:59,0.319678534275,0.384511822632
2024-05-13T11:29:59,0.310746851654,0.379536359592
2024-05-13T11:59:59,0.312841824653,0.373223960283
2024-05-13T12:29:59,0.320755836175,0.382344612314
2024-05-13T12:59:59,0.31525084336,0.388578945895
2024-05-13T13:29:59,0.320852380486,0.388771506039
2024-05-13T13:59:59,0.318473913751,0.387723042109
2024-05-13T14:29:59,0.319634999379,0.384088866123
2024-05-13T14:59:59,0.317270068193,0.38292889668
2024-05-13T15:29:59,0.31821390721,0.385020957835
2024-05-13T15:59:59,0.306606565924,0.397668578801
2024-05-13T16:29:59,0.319902626011,0.390828349066
2024-05-13T16:59:59,0.319169482996,0.387694696594
2024-05-13T17:29:59,0.317182556819,0.391262418333
2024-05-13T17:59:59,0.315774966984,0.389094125998
2024-05-13T18:29:59,0.31690830231,0.382866618884
2024-05-14T05:29:59,0.267314631614,0.430231309507
2024-05-14T05:59:59,0.26983946811,0.417807708664
2024-05-14T06:29:59,0.268186799584,0.416029945096
2024-05-14T06:59:59,0.284316207278,0.370450744704
2024-05-14T07:29:59,0.307606696152,0.365030185012
2024-05-14T07:59:59,0.306553941008,0.372136546376
2024-05-14T08:29:59,0.31918653,0.373172598757
2024-05-14T08:59:59,0.316839147162,0.370948326216
2024-05-14T09:29:59,0.315199570192,0.377045207988
2024-05-14T09:59:58,0.314794000161,0.380402869213
2024-05-14T10:29:59,0.316536257399,0.381237091014
2024-05-14T10:59:59,0.318066968956,0.384425136185
2024-05-14T11:29:59,0.318477858005,0.382472967589
2024-05-14T11:59:59,0.318973407914,0.386016639936
2024-05-14T12:29:59,0.318382790309,0.387127919279
2024-05-14T12:59:59,0.31633361895,0.389837961176
2024-05-14T13:29:59,0.318887238478,0.387784106101
2024-05-14T13:59:59,0.320153918006,0.387937021456
2024-05-14T14:29:59,0.320457563549,0.388783146471
2024-05-14T14:59:59,0.314833916938,0.387884721823
2024-05-14T15:29:59,0.312192124889,0.372438148732
2024-05-14T15:59:59,0.322764232584,0.388121935049
2024-05-14T16:29:59,0.31499608774,0.378743925979
2024-05-14T16:59:59,0.322943103774,0.388071133139
2024-05-14T17:29:59,0.323120365917,0.388232976299
2024-05-14T17:59:59,0.322755405078,0.389863184309
2024-05-14T18:29:59,0.32380702,0.39273439768
2024-05-15T05:29:59,0.26750065869,0.43048838254
2024-05-15T05:59:59,0.260220686073,0.433185366071
2024-05-15T06:29:59,0.249812300326,0.430360056654
2024-05-15T06:59:59,0.28417880978,0.378062646108
2024-05-15T07:29:59,0.299980293551,0.374773997168
2024-05-15T07:59:59,0.311341092818,0.370815800047
2024-05-15T08:29:59,0.308618777767,0.374915961935
2024-05-15T08:59:59,0.317331018821,0.368529146649
2024-05-15T09:29:59,0.31624317718,0.3732755688
2024-05-15T09:59:59,0.315602663357,0.377120950273
2024-05-15T10:29:59,0.317845156328,0.380045955559
2024-05-15T10:59:59,0.318570325885,0.380911620944
2024-05-15T11:29:59,0.319165583571,0.381235686248
2024-05-15T11:59:59,0.319497532823,0.382007495754
2024-05-15T12:29:59,0.319761118732,0.381638018327
2024-05-15T12:59:59,0.320778508249,0.380977311397
2024-05-15T13:29:59,0.321080884154,0.381101701065
2024-05-15T13:59:59,0.321778132717,0.380773860717
2024-05-15T14:29:59,0.321936539103,0.381682327903
2024-05-15T14:59:59,0.321991516326,0.383445267452
2024-05-15T15:29:59,0.322249052539,0.383816923607
2024-05-15T15:59:59,0.322692704545,0.382197856249
2024-05-15T16:29:59,0.323018720735,0.382696200286
2024-05-15T16:59:59,0.3234550709,0.382909122204
2024-05-15T17:29:59,0.323313746473,0.385093506228
2024-05-15T17:59:59,0.323362519685,0.386155322584
2024-05-15T18:29:59,0.32426880368,0.387354172159
2024-05-16T05:29:58,0.262821665273,0.432917756758
2024-05-16T05:59:59,0.260602619964,0.427479703887
2024-05-16T06:29:59,0.244637011628,0.442617766536
2024-05-16T06:59:59,0.289761301951,0.369653623992
2024-05-16T07:29:59,0.309524552736,0.363512478045
2024-05-16T07:59:59,0.315288786416,0.364987566819
2024-05-16T08:29:59,0.313824624195,0.367618956439
2024-05-16T08:59:59,0.316296375778,0.366890336487
2024-05-16T09:29:58,0.317074437532,0.36979744017
2024-05-16T09:59:59,0.318463827379,0.372558181957
2024-05-16T10:29:59,0.318233967122,0.375267078985
2024-05-16T10:59:59,0.318106586182,0.380392513024
2024-05-16T11:29:59,0.319626275755,0.380260645741
2024-05-16T11:59:59,0.320787376107,0.378704707597
2024-05-16T12:29:59,0.320557029838,0.379847587418
2024-05-16T12:59:59,0.321074450855,0.380100295402
2024-05-16T13:29:59,0.321029952509,0.380003957942
2024-05-16T13:59:59,0.321408926087,0.380361070855
2024-05-16T14:29:59,0.322309465583,0.381673495175
2024-05-16T14:59:59,0.322712557041,0.382052391805
2024-05-16T15:29:59,0.322695255072,0.382839503297
2024-05-16T15:59:59,0.323342039361,0.382303720398
2024-05-16T16:29:59,0.323190202814,0.38283016252
2024-05-16T16:59:59,0.323303873321,0.384310076731
2024-05-16T17:29:59,0.322973342143,0.386346026778
2024-05-16T17:59:59,0.323240748995,0.388320616639
2024-05-16T18:29:58,0.324696633309,0.390169713011
2024-05-17T05:29:59,0.274426195309,0.423619130206
2024-05-17T05:59:59,0.258488875864,0.432891843606
2024-05-17T06:29:59,0.248525000402,0.437477319478
2024-05-17T06:59:59,0.298083495332,0.364870010051
2024-05-17T07:29:59,0.310549783335,0.36119135593
2024-05-17T07:59:59,0.317505570685,0.360013977129
2024-05-17T08:29:59,0.31612924991,0.364633004976
2024-05-17T08:59:59,0.314934402379,0.367353691146
2024-05-17T09:29:59,0.317819738302,0.368066339513
2024-05-17T09:59:59,0.31902695613,0.369844824752
2024-05-17T10:29:59,0.320052687627,0.373608776085
2024-05-17T10:59:59,0.320466449533,0.375484947522
2024-05-17T11:29:59,0.31967099315,0.378332543994
2024-05-17T11:59:59,0.32094692028,0.378592796276
2024-05-17T12:29:59,0.321647341506,0.378240519465
2024-05-17T12:59:59,0.321581976621,0.37880712688
2024-05-17T13:29:59,0.321707909972,0.37941335028
2024-05-17T13:59:58,0.322130586608,0.38076431569
2024-05-17T14:29:59,0.322584796077,0.381905242283
2024-05-17T14:59:59,0.323375986349,0.383438222547
2024-05-17T15:29:59,0.321955576756,0.387520431613
2024-05-17T15:59:59,0.322490881562,0.387789228211
2024-05-17T16:29:59,0.322542435128,0.386792270333
2024-05-17T16:59:59,0.32359479116,0.386797087634
2024-05-17T17:29:59,0.323703562299,0.388918968174
2024-05-17T17:59:59,0.323499664514,0.38984258039
2024-05-17T18:29:59,0.324592145,0.393610414242
2024-05-18T05:29:59,0.273865520375,0.422974382812
2024-05-18T05:59:59,0.25571605046,0.434782941774
2024-05-18T06:29:59,0.259608206633,0.425229242718
2024-05-18T06:59:59,0.272534746507,0.384552784231
2024-05-18T07:29:59,0.30104322988,0.369834432968
2024-05-18T07:59:59,0.308262322536,0.372450214282
2024-05-18T08:29:59,0.310184692145,0.374732926938
2024-05-18T08:59:59,0.312912865476,0.376129378542
2024-05-18T09:29:59,0.315019027344,0.376926063458
2024-05-18T09:59:59,0.318220516253,0.37636155316
2024-05-18T10:29:59,0.31849638319,0.377555787126
2024-05-18T10:59:59,0.32023364721,0.377863218113
2024-05-18T11:29:59,0.320759073704,0.379462117061
2024-05-18T11:59:59,0.321194542063,0.378271324682
2024-05-18T12:29:59,0.321205999498,0.378473293441
2024-05-18T12:59:59,0.322052033206,0.37825203862
2024-05-18T13:29:59,0.322120731398,0.377853116607
2024-05-18T13:59:59,0.322900725482,0.378010357836
2024-05-18T14:29:59,0.323086422911,0.378281122501
2024-05-18T14:59:59,0.323244801636,0.379470547165
2024-05-18T15:29:59,0.323474210315,0.380212523958
2024-05-18T15:59:59,0.323166333311,0.381344765581